Ord, NE

11:40 PM CDT on July 20, 2017 (GMT -0500)
Sharp

Weather History for KODX - January, 2013

Change the Weather History Date:

Thursday, January 31, 2013

  Actual Average Record
Temperature  
Mean Temperature 8 °F 26 °F  
Max Temperature 18 °F 38 °F 61 °F (2006)
Min Temperature -2 °F 13 °F -4 °F (2011)
Degree Days  
Heating Degree Days 57 39  
Month to date heating degree days 1225 1251  
Since 1 July heating degree days 3954 3976  
Cooling Degree Days 0 0  
Month to date cooling degree days 0 0  
Year to date cooling degree days 0 0  
Moisture  
Dew Point -1 °F    
Average Humidity 65    
Maximum Humidity 83    
Minimum Humidity 46    
Precipitation  
Precipitation T in 0.01 in 0.86 in (1933)
Month to date precipitation 0.14 0.37  
Year to date precipitation 0.14 0.37  
Sea Level Pressure  
Sea Level Pressure 30.27 in    
Wind  
Wind Speed 13 mph (NW)    
Max Wind Speed 32 mph    
Max Gust Speed 39 mph    
Visibility 10 miles    
Events Snow    
T = Trace of Precipitation, MM = Missing Value Source: NWS Daily Summary

Daily Weather History Graph

Daily Weather History Graph

Search for Another Location

Airport or City:

Trip Planner

Search our weather history database for the weather conditions in past years. The results will help you decide how hot, cold, wet, or windy it might be!

Date:

Astronomy

Jan. 31, 2013 Rise Set
Actual Time 7:48 AM CST 5:50 PM CST
Civil Twilight 7:19 AM CST 6:20 PM CST
Nautical Twilight 6:45 AM CST 6:53 PM CST
Astronomical Twilight 6:13 AM CST 7:26 PM CST
Moon 10:59 PM CST (1/31) 9:44 AM CST (1/31)
Length of Visible Light 11h 01m
Length of Day
10h 02m
Waning Gibbous, 79% of the Moon is Illuminated
Jan 31
Waning Gibbous
Feb 3
Last Quarter
Feb 10
New
Feb 17
First Quarter
Feb 25
Full

Hourly Weather History & Observations

Time (CST) Temp. Windchill Dew Point Humidity Pressure Visibility Wind Dir Wind Speed Gust Speed Precip Events Conditions
12:53 AM 15.1 °F 1.8 °F 8.1 °F 74% 30.02 in 9.0 mi North 11.5 mph - 0.00 in Snow Light Snow
1:53 AM 12.9 °F 0.7 °F 7.0 °F 77% 30.02 in 8.0 mi North 9.2 mph - 0.00 in Snow Light Snow
2:53 AM 10.9 °F 1.4 °F 6.1 °F 81% 30.04 in 10.0 mi North 5.8 mph - N/A   Mostly Cloudy
3:53 AM 10.9 °F 0.2 °F 6.1 °F 81% 30.06 in 10.0 mi WNW 6.9 mph - N/A   Mostly Cloudy
4:53 AM 10.0 °F -2.9 °F 5.0 °F 80% 30.09 in 10.0 mi NW 9.2 mph - N/A   Scattered Clouds
5:53 AM 10.9 °F -0.8 °F 5.0 °F 77% 30.11 in 10.0 mi NNW 8.1 mph - N/A   Overcast
6:18 AM 10.4 °F -5.4 °F 5.0 °F 79% 30.02 in 10.0 mi NNW 13.8 mph - 0.00 in   Overcast
6:53 AM 8.1 °F -10.2 °F 3.0 °F 80% 30.17 in 10.0 mi North 17.3 mph 24.2 mph 0.00 in   Overcast
7:02 AM 6.8 °F -10.7 °F 1.4 °F 79% 30.05 in 10.0 mi North 15.0 mph - N/A   Overcast
7:53 AM 6.1 °F -12.2 °F -2.0 °F 69% 30.22 in 10.0 mi NNW 16.1 mph - N/A   Mostly Cloudy
8:53 AM 6.1 °F -14.8 °F -2.9 °F 67% 30.27 in 10.0 mi NNW 21.9 mph 28.8 mph N/A   Scattered Clouds
9:19 AM 6.8 °F -12.9 °F -2.2 °F 67% 30.17 in 10.0 mi NNW 19.6 mph 28.8 mph N/A   Mostly Cloudy
9:53 AM 9.0 °F -12.2 °F -0.9 °F 64% 30.31 in 10.0 mi NW 25.3 mph 32.2 mph N/A   Overcast
10:18 AM 8.6 °F -14.1 °F -4.0 °F 57% 30.21 in 10.0 mi NNW 29.9 mph 38.0 mph N/A   Scattered Clouds
10:53 AM 8.1 °F -14.2 °F -4.0 °F 58% 30.35 in 10.0 mi NW 27.6 mph 34.5 mph N/A   Partly Cloudy
11:53 AM 10.0 °F -11.5 °F -6.0 °F 48% 30.37 in 10.0 mi NNW 27.6 mph 34.5 mph N/A   Clear
12:53 PM 10.0 °F -10.8 °F -5.1 °F 51% 30.38 in 10.0 mi NW 25.3 mph 32.2 mph N/A   Clear
1:53 PM 12.0 °F -6.5 °F -5.1 °F 46% 30.38 in 10.0 mi NW 20.7 mph 28.8 mph N/A   Clear
2:53 PM 10.9 °F -7.5 °F -5.1 °F 49% 30.38 in 10.0 mi NW 19.6 mph 27.6 mph N/A   Clear
3:53 PM 10.9 °F -7.0 °F -7.1 °F 44% 30.40 in 10.0 mi NW 18.4 mph 24.2 mph N/A   Clear
4:53 PM 10.9 °F -4.1 °F -6.0 °F 47% 30.41 in 10.0 mi NW 12.7 mph - N/A   Clear
5:53 PM 7.0 °F -7.5 °F -7.1 °F 53% 30.42 in 10.0 mi NW 10.4 mph - N/A   Clear
6:53 PM 6.1 °F -7.8 °F -6.0 °F 58% 30.42 in 10.0 mi North 9.2 mph - N/A   Clear
7:53 PM 1.9 °F - -7.1 °F 66% 30.45 in 10.0 mi Calm Calm - N/A   Clear
8:53 PM -0.9 °F -8.9 °F -8.0 °F 72% 30.47 in 10.0 mi SSW 3.5 mph - N/A   Clear
9:53 PM 1.9 °F - -4.0 °F 76% 30.45 in 10.0 mi Calm Calm - N/A   Overcast
10:53 PM 5.0 °F - -2.9 °F 70% 30.45 in 10.0 mi Calm Calm - N/A   Overcast
11:53 PM 6.1 °F -4.3 °F -2.9 °F 67% 30.44 in 10.0 mi South 5.8 mph - N/A   Overcast